| time (UTC) | temp F | wind direction | speed MPH | gust MPH | rain 1hr in | rain 24hr in | rain mn in | humidity % | barometer mb |
| 20260507165229 | 62 | 269 | 2.0 | 5.0 | 0.00 | 0.00 | 0.00 | 53 | 1014.5 |
| 20260507164725 | 61 | 206 | 4.0 | 6.0 | 0.00 | 0.00 | 0.00 | 53 | 1014.6 |
| 20260507164223 | 62 | 236 | 4.0 | 6.0 | 0.00 | 0.00 | 0.00 | 53 | 1014.7 |
| 20260507163720 | 62 | 255 | 5.0 | 6.0 | 0.00 | 0.00 | 0.00 | 53 | 1014.8 |
| 20260507163218 | 62 | 190 | 2.0 | 6.0 | 0.00 | 0.00 | 0.00 | 53 | 1014.6 |
| 20260507162713 | 62 | 298 | 3.0 | 5.0 | 0.00 | 0.00 | 0.00 | 54 | 1014.7 |
| 20260507162209 | 61 | 280 | 2.0 | 6.0 | 0.00 | 0.00 | 0.00 | 55 | 1014.8 |
| 20260507161706 | 61 | 246 | 3.0 | 6.0 | 0.00 | 0.00 | 0.00 | 56 | 1014.9 |
| 20260507161203 | 60 | 212 | 1.0 | 3.0 | 0.00 | 0.00 | 0.00 | 58 | 1015.0 |
| 20260507160659 | 61 | 171 | 3.0 | 6.0 | 0.00 | 0.00 | 0.00 | 55 | 1015.0 |
| 20260507160156 | 60 | 248 | 3.0 | 6.0 | 0.00 | 0.00 | 0.00 | 56 | 1014.9 |
| 20260507155651 | 60 | 271 | 5.0 | 7.0 | 0.00 | 0.00 | 0.00 | 56 | 1014.9 |
| 20260507155148 | 60 | 225 | 3.0 | 5.0 | 0.00 | 0.00 | 0.00 | 59 | 1014.8 |
| 20260507154644 | 59 | 247 | 2.0 | 9.0 | 0.00 | 0.00 | 0.00 | 59 | 1015.0 |
| 20260507154143 | 60 | 271 | 5.0 | 7.0 | 0.00 | 0.00 | 0.00 | 58 | 1015.1 |
| 20260507153639 | 60 | 165 | 4.0 | 6.0 | 0.00 | 0.00 | 0.00 | 57 | 1015.1 |
| 20260507153135 | 60 | 193 | 4.0 | 6.0 | 0.00 | 0.00 | 0.00 | 59 | 1015.1 |
| 20260507152632 | 59 | 219 | 4.0 | 7.0 | 0.00 | 0.00 | 0.00 | 59 | 1015.1 |
| 20260507152127 | 59 | 213 | 3.0 | 6.0 | 0.00 | 0.00 | 0.00 | 59 | 1015.2 |
| 20260507151624 | 59 | 194 | 2.0 | 5.0 | 0.00 | 0.00 | 0.00 | 61 | 1015.2 |
| 20260507151121 | 59 | 194 | 3.0 | 5.0 | 0.00 | 0.00 | 0.00 | 62 | 1015.4 |
| 20260507150618 | 58 | 201 | 3.0 | 5.0 | 0.00 | 0.00 | 0.00 | 60 | 1015.2 |
| 20260507150114 | 58 | 206 | 2.0 | 3.0 | 0.00 | 0.00 | 0.00 | 61 | 1015.5 |
| 20260507145609 | 58 | 265 | 4.0 | 5.0 | 0.00 | 0.00 | 0.00 | 60 | 1015.5 |
| 20260507145108 | 58 | 246 | 3.0 | 6.0 | 0.00 | 0.00 | 0.00 | 60 | 1015.7 |
| 20260507144603 | 58 | 156 | 0.0 | 3.0 | 0.00 | 0.00 | 0.00 | 61 | 1015.5 |
| 20260507144102 | 57 | 228 | 3.0 | 5.0 | 0.00 | 0.00 | 0.00 | 62 | 1015.6 |
| 20260507143558 | 58 | 242 | 3.0 | 5.0 | 0.00 | 0.00 | 0.00 | 60 | 1015.7 |
| 20260507143056 | 58 | 279 | 1.0 | 2.0 | 0.00 | 0.00 | 0.00 | 60 | 1015.5 |
| 20260507142555 | 57 | 219 | 2.0 | 3.0 | 0.00 | 0.00 | 0.00 | 61 | 1015.6 |
| 20260507142053 | 57 | 233 | 4.0 | 5.0 | 0.00 | 0.00 | 0.00 | 60 | 1015.5 |
| 20260507141549 | 57 | 240 | 4.0 | 5.0 | 0.00 | 0.00 | 0.00 | 61 | 1015.5 |
| 20260507141046 | 56 | 122 | 1.0 | 2.0 | 0.00 | 0.00 | 0.00 | 62 | 1015.8 |
| 20260507140542 | 56 | 47 | 0.0 | 0.0 | 0.00 | 0.00 | 0.00 | 64 | 1015.6 |
| 20260507140040 | 55 | 215 | 1.0 | 2.0 | 0.00 | 0.00 | 0.00 | 65 | 1015.6 |
| 20260507135537 | 55 | 230 | 3.0 | 5.0 | 0.00 | 0.00 | 0.00 | 64 | 1015.6 |
| 20260507135034 | 55 | 154 | 2.0 | 2.0 | 0.00 | 0.00 | 0.00 | 66 | 1015.5 |
| 20260507134530 | 55 | 212 | 2.0 | 2.0 | 0.00 | 0.00 | 0.00 | 67 | 1015.5 |
| 20260507134026 | 54 | 203 | 2.0 | 3.0 | 0.00 | 0.00 | 0.00 | 69 | 1015.6 |
| 20260507133523 | 54 | 158 | 1.0 | 1.0 | 0.00 | 0.00 | 0.00 | 67 | 1015.7 |
| 20260507133021 | 53 | 274 | 0.0 | 2.0 | 0.00 | 0.00 | 0.00 | 69 | 1015.6 |
| 20260507132517 | 53 | 246 | 2.0 | 3.0 | 0.00 | 0.00 | 0.00 | 71 | 1015.7 |
| 20260507132013 | 52 | 131 | 1.0 | 2.0 | 0.00 | 0.00 | 0.00 | 72 | 1015.6 |
| 20260507131510 | 52 | 179 | 2.0 | 2.0 | 0.00 | 0.00 | 0.00 | 73 | 1015.7 |
| 20260507131008 | 52 | 122 | 0.0 | 0.0 | 0.00 | 0.00 | 0.00 | 72 | 1015.9 |
| 20260507130504 | 51 | 113 | 0.0 | 0.0 | 0.00 | 0.00 | 0.00 | 73 | 1015.8 |
| 20260507130003 | 51 | 114 | 0.0 | 0.0 | 0.00 | 0.00 | 0.00 | 73 | 1015.8 |
| 20260507125501 | 50 | 168 | 1.0 | 2.0 | 0.00 | 0.00 | 0.00 | 74 | 1015.8 |
| 20260507124958 | 50 | 116 | 0.0 | 0.0 | 0.00 | 0.00 | 0.00 | 75 | 1016.0 |
| 20260507124454 | 50 | 99 | 0.0 | 0.0 | 0.00 | 0.00 | 0.00 | 75 | 1016.0 |
| 20260507123952 | 50 | 160 | 1.0 | 2.0 | 0.00 | 0.00 | 0.00 | 75 | 1016.0 |
| 20260507123450 | 49 | 177 | 0.0 | 0.0 | 0.00 | 0.00 | 0.00 | 75 | 1015.9 |
| 20260507122946 | 49 | 94 | 0.0 | 0.0 | 0.00 | 0.00 | 0.00 | 75 | 1015.9 |
| 20260507122441 | 49 | 106 | 0.0 | 0.0 | 0.00 | 0.00 | 0.00 | 75 | 1016.0 |
| 20260507121937 | 49 | 85 | 0.0 | 0.0 | 0.00 | 0.00 | 0.00 | 74 | 1015.9 |
| 20260507121433 | 48 | 94 | 0.0 | 0.0 | 0.00 | 0.00 | 0.00 | 75 | 1015.8 |
| 20260507120930 | 48 | 88 | 0.0 | 0.0 | 0.00 | 0.00 | 0.00 | 75 | 1016.0 |
| 20260507120426 | 48 | 82 | 0.0 | 0.0 | 0.00 | 0.00 | 0.00 | 76 | 1015.7 |
| 20260507115922 | 47 | 94 | 0.0 | 0.0 | 0.00 | 0.00 | 0.00 | 77 | 1015.9 |
| 20260507115419 | 46 | 97 | 0.0 | 0.0 | 0.00 | 0.00 | 0.00 | 79 | 1015.9 |
| 20260507114914 | 45 | 87 | 0.0 | 0.0 | 0.00 | 0.00 | 0.00 | 80 | 1015.8 |
| 20260507114412 | 44 | 77 | 0.0 | 0.0 | 0.00 | 0.00 | 0.00 | 82 | 1015.9 |
| 20260507113909 | 44 | 45 | 0.0 | 0.0 | 0.00 | 0.00 | 0.00 | 83 | 1015.7 |
| 20260507113406 | 44 | 45 | 0.0 | 0.0 | 0.00 | 0.00 | 0.00 | 83 | 1015.9 |
| 20260507112903 | 44 | 45 | 0.0 | 0.0 | 0.00 | 0.00 | 0.00 | 83 | 1015.9 |
| 20260507112400 | 44 | 45 | 0.0 | 0.0 | 0.00 | 0.00 | 0.00 | 84 | 1015.9 |
| 20260507111858 | 43 | 45 | 0.0 | 0.0 | 0.00 | 0.00 | 0.00 | 85 | 1015.8 |
| 20260507111354 | 43 | 45 | 0.0 | 0.0 | 0.00 | 0.00 | 0.00 | 85 | 1015.6 |
| 20260507110850 | 43 | 45 | 0.0 | 0.0 | 0.00 | 0.00 | 0.00 | 84 | 1015.7 |
| 20260507110347 | 43 | 45 | 0.0 | 0.0 | 0.00 | 0.00 | 0.00 | 84 | 1015.8 |
| 20260507105844 | 43 | 45 | 0.0 | 0.0 | 0.00 | 0.00 | 0.00 | 83 | 1015.5 |
| 20260507105340 | 43 | 45 | 0.0 | 0.0 | 0.00 | 0.00 | 0.00 | 84 | 1015.8 |
| 20260507104837 | 43 | 45 | 0.0 | 0.0 | 0.00 | 0.00 | 0.00 | 83 | 1015.6 |
| 20260507104334 | 43 | 45 | 0.0 | 0.0 | 0.00 | 0.00 | 0.00 | 84 | 1015.6 |
| 20260507103830 | 42 | 45 | 0.0 | 0.0 | 0.00 | 0.00 | 0.00 | 83 | 1015.7 |
| 20260507103327 | 43 | 45 | 0.0 | 0.0 | 0.00 | 0.00 | 0.00 | 82 | 1015.7 |
| 20260507102823 | 43 | 45 | 0.0 | 0.0 | 0.00 | 0.00 | 0.00 | 81 | 1015.7 |
| 20260507102320 | 43 | 45 | 0.0 | 0.0 | 0.00 | 0.00 | 0.00 | 81 | 1015.6 |
| 20260507101816 | 43 | 45 | 0.0 | 0.0 | 0.00 | 0.00 | 0.00 | 80 | 1015.6 |
| 20260507101316 | 43 | 45 | 0.0 | 0.0 | 0.00 | 0.00 | 0.00 | 79 | 1015.9 |
| 20260507100813 | 44 | 45 | 0.0 | 0.0 | 0.00 | 0.00 | 0.00 | 78 | 1015.9 |
| 20260507100311 | 44 | 45 | 0.0 | 0.0 | 0.00 | 0.00 | 0.00 | 77 | 1015.7 |
| 20260507095809 | 44 | 45 | 0.0 | 0.0 | 0.00 | 0.00 | 0.00 | 77 | 1015.7 |
| 20260507095306 | 44 | 45 | 0.0 | 0.0 | 0.00 | 0.00 | 0.00 | 77 | 1016.0 |
| 20260507094802 | 44 | 45 | 0.0 | 0.0 | 0.00 | 0.00 | 0.00 | 76 | 1015.9 |
| 20260507094259 | 44 | 45 | 0.0 | 0.0 | 0.00 | 0.00 | 0.00 | 76 | 1015.9 |
| 20260507093756 | 44 | 45 | 0.0 | 0.0 | 0.00 | 0.00 | 0.00 | 77 | 1016.0 |
| 20260507093255 | 44 | 45 | 0.0 | 0.0 | 0.00 | 0.00 | 0.00 | 77 | 1016.0 |
| 20260507092752 | 44 | 45 | 0.0 | 0.0 | 0.00 | 0.00 | 0.00 | 76 | 1016.0 |
| 20260507092248 | 43 | 45 | 0.0 | 0.0 | 0.00 | 0.00 | 0.00 | 77 | 1016.3 |
| 20260507091745 | 44 | 45 | 0.0 | 0.0 | 0.00 | 0.00 | 0.00 | 76 | 1016.1 |
| 20260507091241 | 44 | 45 | 0.0 | 0.0 | 0.00 | 0.00 | 0.00 | 75 | 1016.3 |
| 20260507090736 | 44 | 45 | 0.0 | 0.0 | 0.00 | 0.00 | 0.00 | 74 | 1015.9 |
| 20260507090233 | 44 | 45 | 0.0 | 0.0 | 0.00 | 0.00 | 0.00 | 73 | 1015.9 |
| 20260507085730 | 45 | 45 | 0.0 | 0.0 | 0.00 | 0.00 | 0.00 | 73 | 1015.9 |
| 20260507085227 | 45 | 45 | 0.0 | 0.0 | 0.00 | 0.00 | 0.00 | 73 | 1016.1 |
| 20260507084724 | 45 | 45 | 0.0 | 0.0 | 0.00 | 0.00 | 0.00 | 72 | 1016.3 |
| 20260507084221 | 45 | 45 | 0.0 | 0.0 | 0.00 | 0.00 | 0.00 | 72 | 1016.0 |
| 20260507083719 | 45 | 45 | 0.0 | 0.0 | 0.00 | 0.00 | 0.00 | 72 | 1016.3 |
| 20260507083215 | 46 | 45 | 0.0 | 0.0 | 0.00 | 0.00 | 0.00 | 73 | 1016.1 |
| 20260507082711 | 45 | 45 | 0.0 | 0.0 | 0.00 | 0.00 | 0.00 | 71 | 1016.4 |
| 20260507082207 | 44 | 45 | 0.0 | 0.0 | 0.00 | 0.00 | 0.00 | 71 | 1016.3 |
| 20260507081704 | 45 | 45 | 0.0 | 0.0 | 0.00 | 0.00 | 0.00 | 71 | 1016.4 |
| 20260507081200 | 44 | 45 | 0.0 | 0.0 | 0.00 | 0.00 | 0.00 | 71 | 1016.1 |
| 20260507080657 | 45 | 45 | 0.0 | 0.0 | 0.00 | 0.00 | 0.00 | 71 | 1016.3 |
| 20260507080153 | 45 | 45 | 0.0 | 0.0 | 0.00 | 0.00 | 0.00 | 71 | 1016.4 |
| 20260507075648 | 45 | 45 | 0.0 | 0.0 | 0.00 | 0.00 | 0.00 | 71 | 1016.1 |
| 20260507075144 | 45 | 45 | 0.0 | 0.0 | 0.00 | 0.00 | 0.00 | 71 | 1016.3 |
| 20260507074641 | 45 | 45 | 0.0 | 0.0 | 0.00 | 0.00 | 0.00 | 71 | 1016.3 |
| 20260507074140 | 45 | 45 | 0.0 | 0.0 | 0.00 | 0.00 | 0.00 | 71 | 1016.1 |
| 20260507073636 | 45 | 45 | 0.0 | 0.0 | 0.00 | 0.00 | 0.00 | 71 | 1016.6 |
| 20260507073132 | 45 | 45 | 0.0 | 0.0 | 0.00 | 0.00 | 0.00 | 71 | 1016.6 |
| 20260507072630 | 45 | 45 | 0.0 | 0.0 | 0.00 | 0.00 | 0.00 | 71 | 1016.4 |
| 20260507072127 | 46 | 45 | 0.0 | 0.0 | 0.00 | 0.00 | 0.00 | 72 | 1016.3 |
| 20260507071624 | 46 | 45 | 0.0 | 0.0 | 0.00 | 0.00 | 0.00 | 71 | 1016.6 |
| 20260507071120 | 46 | 45 | 0.0 | 0.0 | 0.00 | 0.00 | 0.00 | 72 | 1016.7 |
| 20260507070618 | 45 | 45 | 0.0 | 0.0 | 0.00 | 0.00 | 0.00 | 72 | 1016.5 |
| 20260507070115 | 46 | 45 | 0.0 | 0.0 | 0.00 | 0.00 | 0.00 | 72 | 1016.9 |
| 20260507065611 | 45 | 45 | 0.0 | 0.0 | 0.00 | 0.00 | 0.00 | 70 | 1016.8 |
| 20260507065108 | 46 | 45 | 0.0 | 0.0 | 0.00 | 0.00 | 0.00 | 70 | 1016.8 |
| 20260507064606 | 46 | 45 | 0.0 | 0.0 | 0.00 | 0.00 | 0.00 | 71 | 1016.7 |
| 20260507064104 | 46 | 45 | 0.0 | 0.0 | 0.00 | 0.00 | 0.00 | 70 | 1016.8 |
| 20260507063601 | 47 | 45 | 0.0 | 0.0 | 0.00 | 0.00 | 0.00 | 69 | 1016.8 |
| 20260507063059 | 48 | 45 | 0.0 | 0.0 | 0.00 | 0.00 | 0.00 | 67 | 1017.1 |
| 20260507062555 | 48 | 45 | 0.0 | 0.0 | 0.00 | 0.00 | 0.00 | 63 | 1017.1 |
| 20260507062053 | 48 | 45 | 0.0 | 0.0 | 0.00 | 0.00 | 0.00 | 64 | 1016.8 |
| 20260507061550 | 47 | 45 | 0.0 | 0.0 | 0.00 | 0.00 | 0.00 | 70 | 1017.1 |
| 20260507061048 | 47 | 45 | 0.0 | 0.0 | 0.00 | 0.00 | 0.00 | 67 | 1016.7 |
| 20260507060546 | 48 | 45 | 0.0 | 0.0 | 0.00 | 0.00 | 0.00 | 67 | 1017.0 |
| 20260507060042 | 48 | 45 | 0.0 | 0.0 | 0.00 | 0.00 | 0.00 | 67 | 1017.0 |
| 20260507055537 | 49 | 45 | 0.0 | 0.0 | 0.00 | 0.00 | 0.00 | 66 | 1016.9 |
| 20260507055034 | 49 | 45 | 0.0 | 0.0 | 0.00 | 0.00 | 0.00 | 63 | 1017.0 |
| 20260507054530 | 49 | 45 | 0.0 | 0.0 | 0.00 | 0.00 | 0.00 | 60 | 1017.0 |
| 20260507054027 | 50 | 41 | 0.0 | 0.0 | 0.00 | 0.00 | 0.00 | 60 | 1017.0 |
| 20260507053525 | 50 | 41 | 0.0 | 0.0 | 0.00 | 0.00 | 0.00 | 59 | 1017.1 |
| 20260507053023 | 50 | 41 | 0.0 | 0.0 | 0.00 | 0.00 | 0.00 | 58 | 1017.0 |
| 20260507052521 | 50 | 41 | 0.0 | 0.0 | 0.00 | 0.00 | 0.00 | 56 | 1017.0 |
| 20260507052017 | 50 | 41 | 0.0 | 0.0 | 0.00 | 0.00 | 0.00 | 54 | 1016.7 |
| 20260507051515 | 50 | 41 | 0.0 | 0.0 | 0.00 | 0.00 | 0.00 | 54 | 1017.2 |
| 20260507051012 | 50 | 41 | 0.0 | 0.0 | 0.00 | 0.00 | 0.00 | 53 | 1016.9 |
| 20260507050508 | 50 | 41 | 0.0 | 0.0 | 0.00 | 0.00 | 0.00 | 52 | 1016.7 |
| 20260507050005 | 50 | 41 | 0.0 | 0.0 | 0.00 | 0.02 | 0.02 | 52 | 1016.8 |
| 20260507045501 | 50 | 41 | 0.0 | 0.0 | 0.00 | 0.02 | 0.02 | 51 | 1016.8 |
| 20260507044959 | 50 | 41 | 0.0 | 0.0 | 0.00 | 0.02 | 0.02 | 50 | 1016.9 |
| 20260507044455 | 51 | 41 | 0.0 | 0.0 | 0.00 | 0.02 | 0.02 | 49 | 1017.2 |
| 20260507043951 | 51 | 41 | 0.0 | 0.0 | 0.00 | 0.02 | 0.02 | 50 | 1016.9 |
| 20260507043448 | 51 | 41 | 0.0 | 0.0 | 0.00 | 0.02 | 0.02 | 52 | 1016.9 |
| 20260507042944 | 50 | 41 | 0.0 | 0.0 | 0.00 | 0.02 | 0.02 | 50 | 1016.9 |
| 20260507042441 | 50 | 41 | 0.0 | 0.0 | 0.00 | 0.02 | 0.02 | 50 | 1017.1 |
| 20260507041937 | 50 | 41 | 0.0 | 0.0 | 0.00 | 0.02 | 0.02 | 53 | 1017.0 |
| 20260507041434 | 50 | 41 | 0.0 | 0.0 | 0.00 | 0.02 | 0.02 | 52 | 1017.2 |
| 20260507040931 | 49 | 41 | 0.0 | 0.0 | 0.00 | 0.02 | 0.02 | 56 | 1017.0 |
| 20260507040432 | 50 | 41 | 0.0 | 0.0 | 0.00 | 0.02 | 0.02 | 66 | 1017.3 |
| 20260507035928 | 50 | 41 | 0.0 | 0.0 | 0.00 | 0.02 | 0.02 | 59 | 1017.3 |
| 20260507035424 | 50 | 41 | 0.0 | 0.0 | 0.00 | 0.02 | 0.02 | 58 | 1017.2 |
| 20260507034921 | 50 | 41 | 0.0 | 0.0 | 0.00 | 0.02 | 0.02 | 51 | 1017.1 |
| 20260507034418 | 51 | 41 | 0.0 | 0.0 | 0.00 | 0.02 | 0.02 | 55 | 1017.3 |
| 20260507033916 | 51 | 41 | 0.0 | 0.0 | 0.00 | 0.02 | 0.02 | 49 | 1017.2 |
| 20260507033414 | 51 | 41 | 0.0 | 0.0 | 0.00 | 0.02 | 0.02 | 44 | 1017.2 |
| 20260507032911 | 51 | 41 | 0.0 | 0.0 | 0.00 | 0.02 | 0.02 | 47 | 1017.1 |
| 20260507032408 | 51 | 41 | 0.0 | 0.0 | 0.00 | 0.02 | 0.02 | 47 | 1017.1 |
| 20260507031903 | 51 | 41 | 0.0 | 0.0 | 0.00 | 0.02 | 0.02 | 47 | 1017.2 |
| 20260507031400 | 51 | 41 | 0.0 | 0.0 | 0.00 | 0.02 | 0.02 | 47 | 1017.1 |
| 20260507030857 | 51 | 41 | 0.0 | 0.0 | 0.00 | 0.02 | 0.02 | 48 | 1017.2 |
| 20260507030354 | 50 | 41 | 0.0 | 0.0 | 0.00 | 0.02 | 0.02 | 49 | 1017.3 |
| 20260507025851 | 50 | 41 | 0.0 | 0.0 | 0.00 | 0.02 | 0.02 | 57 | 1017.2 |
| 20260507025349 | 50 | 41 | 0.0 | 0.0 | 0.00 | 0.02 | 0.02 | 59 | 1017.1 |
| 20260507024846 | 50 | 40 | 0.0 | 0.0 | 0.00 | 0.02 | 0.02 | 57 | 1017.0 |
| 20260507024343 | 50 | 48 | 0.0 | 0.0 | 0.00 | 0.02 | 0.02 | 55 | 1017.2 |
| 20260507023839 | 50 | 48 | 0.0 | 0.0 | 0.00 | 0.02 | 0.02 | 54 | 1017.0 |
| 20260507023336 | 50 | 48 | 0.0 | 0.0 | 0.00 | 0.02 | 0.02 | 53 | 1017.0 |
| 20260507022833 | 50 | 44 | 0.0 | 0.0 | 0.00 | 0.02 | 0.02 | 51 | 1016.9 |
| 20260507022330 | 50 | 44 | 0.0 | 0.0 | 0.00 | 0.02 | 0.02 | 49 | 1017.1 |
| 20260507021826 | 51 | 48 | 0.0 | 0.0 | 0.00 | 0.02 | 0.02 | 50 | 1016.8 |
| 20260507021321 | 51 | 48 | 0.0 | 0.0 | 0.00 | 0.02 | 0.02 | 47 | 1016.9 |
| 20260507020819 | 51 | 44 | 0.0 | 0.0 | 0.00 | 0.02 | 0.02 | 45 | 1016.8 |
| 20260507020316 | 51 | 48 | 0.0 | 0.0 | 0.00 | 0.02 | 0.02 | 45 | 1016.8 |
| 20260507015813 | 51 | 44 | 0.0 | 0.0 | 0.00 | 0.02 | 0.02 | 48 | 1016.5 |
| 20260507015311 | 52 | 44 | 0.0 | 0.0 | 0.00 | 0.02 | 0.02 | 50 | 1016.6 |
| 20260507014808 | 52 | 44 | 0.0 | 0.0 | 0.00 | 0.02 | 0.02 | 46 | 1016.7 |
| 20260507014304 | 52 | 44 | 0.0 | 0.0 | 0.00 | 0.02 | 0.02 | 43 | 1016.6 |
| 20260507013800 | 53 | 44 | 0.0 | 0.0 | 0.00 | 0.02 | 0.02 | 43 | 1016.6 |
| 20260507013258 | 54 | 44 | 0.0 | 0.0 | 0.00 | 0.02 | 0.02 | 43 | 1016.6 |
| 20260507012755 | 54 | 41 | 0.0 | 0.0 | 0.00 | 0.02 | 0.02 | 42 | 1016.5 |
| 20260507012250 | 54 | 41 | 0.0 | 0.0 | 0.00 | 0.02 | 0.02 | 45 | 1016.6 |
| 20260507011748 | 54 | 42 | 0.0 | 0.0 | 0.00 | 0.02 | 0.02 | 43 | 1016.5 |
| 20260507011244 | 55 | 41 | 0.0 | 0.0 | 0.00 | 0.02 | 0.02 | 42 | 1016.4 |
| 20260507010744 | 55 | 41 | 0.0 | 0.0 | 0.00 | 0.02 | 0.02 | 42 | 1016.4 |
| 20260507010240 | 56 | 41 | 0.0 | 0.0 | 0.00 | 0.02 | 0.02 | 41 | 1016.3 |
| 20260507005738 | 56 | 41 | 0.0 | 0.0 | 0.00 | 0.02 | 0.02 | 39 | 1016.4 |
| 20260507005234 | 57 | 41 | 0.0 | 0.0 | 0.00 | 0.02 | 0.02 | 39 | 1016.5 |
| 20260507004731 | 57 | 41 | 0.0 | 0.0 | 0.00 | 0.02 | 0.02 | 38 | 1016.4 |
| 20260507004229 | 57 | 40 | 0.0 | 0.0 | 0.00 | 0.02 | 0.02 | 36 | 1016.3 |
| 20260507003725 | 57 | 40 | 0.0 | 0.0 | 0.00 | 0.02 | 0.02 | 35 | 1016.6 |
| 20260507003220 | 58 | 39 | 0.0 | 0.0 | 0.00 | 0.02 | 0.02 | 36 | 1016.3 |
| 20260507002716 | 58 | 32 | 1.0 | 2.0 | 0.00 | 0.02 | 0.02 | 34 | 1016.0 |
| 20260507002212 | 58 | 37 | 0.0 | 1.0 | 0.00 | 0.02 | 0.02 | 36 | 1016.5 |
| 20260507001709 | 58 | 36 | 1.0 | 2.0 | 0.00 | 0.02 | 0.02 | 34 | 1016.1 |
| 20260507001207 | 58 | 37 | 0.0 | 1.0 | 0.00 | 0.02 | 0.02 | 34 | 1016.4 |
| 20260507000703 | 58 | 340 | 1.0 | 2.0 | 0.00 | 0.02 | 0.02 | 34 | 1016.3 |
| 20260507000158 | 58 | 343 | 2.0 | 3.0 | 0.00 | 0.02 | 0.02 | 33 | 1016.5 |
| 20260506235656 | 58 | 344 | 2.0 | 2.0 | 0.00 | 0.02 | 0.02 | 34 | 1016.5 |
| 20260506235151 | 59 | 315 | 2.0 | 2.0 | 0.00 | 0.02 | 0.02 | 34 | 1016.5 |
| 20260506234648 | 59 | 34 | 1.0 | 2.0 | 0.00 | 0.02 | 0.02 | 34 | 1016.5 |
| 20260506234145 | 59 | 46 | 0.0 | 1.0 | 0.00 | 0.02 | 0.02 | 34 | 1016.4 |
| 20260506233642 | 59 | 53 | 1.0 | 2.0 | 0.00 | 0.02 | 0.02 | 34 | 1016.5 |
| 20260506233139 | 59 | 33 | 1.0 | 2.0 | 0.00 | 0.02 | 0.02 | 34 | 1016.5 |
| 20260506232635 | 59 | 354 | 2.0 | 2.0 | 0.00 | 0.02 | 0.02 | 34 | 1016.4 |
| 20260506232131 | 59 | 21 | 1.0 | 2.0 | 0.00 | 0.02 | 0.02 | 34 | 1016.4 |
| 20260506231628 | 59 | 0 | 1.0 | 3.0 | 0.00 | 0.02 | 0.02 | 34 | 1016.5 |
| 20260506231127 | 59 | 17 | 1.0 | 1.0 | 0.00 | 0.02 | 0.02 | 34 | 1016.1 |
| 20260506230623 | 59 | 39 | 2.0 | 2.0 | 0.00 | 0.02 | 0.02 | 34 | 1016.6 |
| 20260506230120 | 59 | 48 | 1.0 | 2.0 | 0.00 | 0.02 | 0.02 | 34 | 1016.4 |
| 20260506225617 | 59 | 20 | 2.0 | 3.0 | 0.00 | 0.02 | 0.02 | 34 | 1016.1 |
| 20260506225113 | 59 | 323 | 2.0 | 3.0 | 0.00 | 0.02 | 0.02 | 34 | 1016.5 |
| 20260506224610 | 59 | 12 | 1.0 | 2.0 | 0.00 | 0.02 | 0.02 | 35 | 1016.5 |
| 20260506224106 | 59 | 21 | 2.0 | 2.0 | 0.00 | 0.02 | 0.02 | 34 | 1016.3 |
| 20260506223602 | 59 | 318 | 1.0 | 2.0 | 0.00 | 0.02 | 0.02 | 35 | 1016.5 |
| 20260506223059 | 59 | 52 | 0.0 | 2.0 | 0.00 | 0.02 | 0.02 | 33 | 1016.5 |
| 20260506222556 | 59 | 44 | 0.0 | 2.0 | 0.00 | 0.02 | 0.02 | 33 | 1016.5 |
| 20260506222052 | 59 | 31 | 1.0 | 2.0 | 0.00 | 0.02 | 0.02 | 34 | 1016.7 |
| 20260506221550 | 59 | 310 | 3.0 | 5.0 | 0.00 | 0.02 | 0.02 | 33 | 1016.6 |
| 20260506221048 | 59 | 15 | 1.0 | 2.0 | 0.00 | 0.02 | 0.02 | 34 | 1016.9 |
| 20260506220543 | 59 | 349 | 2.0 | 2.0 | 0.00 | 0.02 | 0.02 | 34 | 1016.4 |
| 20260506220039 | 59 | 325 | 2.0 | 5.0 | 0.00 | 0.02 | 0.02 | 34 | 1016.5 |
| 20260506215536 | 59 | 284 | 3.0 | 3.0 | 0.00 | 0.02 | 0.02 | 35 | 1016.5 |
| 20260506215032 | 59 | 2 | 1.0 | 2.0 | 0.00 | 0.02 | 0.02 | 34 | 1016.8 |
| 20260506214529 | 59 | 308 | 1.0 | 3.0 | 0.00 | 0.02 | 0.02 | 33 | 1016.8 |
| 20260506214026 | 59 | 10 | 1.0 | 6.0 | 0.00 | 0.02 | 0.02 | 34 | 1016.7 |
| 20260506213524 | 59 | 350 | 2.0 | 6.0 | 0.00 | 0.02 | 0.02 | 32 | 1017.0 |
| 20260506213021 | 59 | 34 | 2.0 | 6.0 | 0.00 | 0.02 | 0.02 | 33 | 1016.8 |
| 20260506212518 | 59 | 290 | 3.0 | 5.0 | 0.00 | 0.02 | 0.02 | 34 | 1016.9 |
| 20260506212013 | 59 | 2 | 3.0 | 5.0 | 0.00 | 0.02 | 0.02 | 34 | 1016.9 |
| 20260506211509 | 60 | 15 | 4.0 | 5.0 | 0.00 | 0.02 | 0.02 | 33 | 1017.0 |
| 20260506211006 | 59 | 1 | 1.0 | 2.0 | 0.00 | 0.02 | 0.02 | 34 | 1017.2 |
| 20260506210502 | 59 | 10 | 3.0 | 5.0 | 0.00 | 0.02 | 0.02 | 33 | 1017.3 |
| 20260506205959 | 59 | 354 | 2.0 | 3.0 | 0.00 | 0.02 | 0.02 | 33 | 1017.2 |
| 20260506205456 | 59 | 4 | 2.0 | 3.0 | 0.00 | 0.02 | 0.02 | 33 | 1017.4 |
| 20260506204952 | 60 | 352 | 1.0 | 3.0 | 0.00 | 0.02 | 0.02 | 31 | 1017.3 |
| 20260506204450 | 60 | 30 | 1.0 | 5.0 | 0.00 | 0.02 | 0.02 | 33 | 1017.4 |
| 20260506203947 | 60 | 56 | 0.0 | 2.0 | 0.00 | 0.02 | 0.02 | 34 | 1017.7 |
| 20260506203444 | 60 | 60 | 0.0 | 2.0 | 0.00 | 0.02 | 0.02 | 36 | 1017.6 |
| 20260506202941 | 60 | 233 | 4.0 | 5.0 | 0.00 | 0.02 | 0.02 | 32 | 1017.4 |
| 20260506202438 | 59 | 330 | 1.0 | 1.0 | 0.00 | 0.02 | 0.02 | 33 | 1017.7 |
| 20260506201934 | 59 | 5 | 1.0 | 2.0 | 0.00 | 0.02 | 0.02 | 33 | 1017.7 |
| 20260506201432 | 59 | 333 | 3.0 | 5.0 | 0.00 | 0.02 | 0.02 | 36 | 1017.8 |
| 20260506200928 | 59 | 350 | 2.0 | 3.0 | 0.00 | 0.02 | 0.02 | 34 | 1017.6 |
| 20260506200425 | 59 | 254 | 0.0 | 2.0 | 0.00 | 0.02 | 0.02 | 33 | 1017.9 |
| 20260506195916 | 58 | 332 | 3.0 | 5.0 | 0.00 | 0.02 | 0.02 | 33 | 1017.6 |
| 20260506195413 | 59 | 351 | 2.0 | 3.0 | 0.00 | 0.02 | 0.02 | 35 | 1017.8 |
| 20260506194910 | 58 | 39 | 0.0 | 2.0 | 0.00 | 0.02 | 0.02 | 33 | 1017.9 |
| 20260506194407 | 58 | 358 | 2.0 | 3.0 | 0.00 | 0.02 | 0.02 | 34 | 1017.9 |
| 20260506193903 | 58 | 291 | 2.0 | 5.0 | 0.00 | 0.02 | 0.02 | 34 | 1018.0 |
| 20260506193401 | 58 | 298 | 2.0 | 3.0 | 0.00 | 0.02 | 0.02 | 34 | 1017.8 |
| 20260506192856 | 57 | 335 | 1.0 | 2.0 | 0.00 | 0.02 | 0.02 | 35 | 1018.1 |
| 20260506192353 | 57 | 307 | 2.0 | 2.0 | 0.00 | 0.02 | 0.02 | 36 | 1018.2 |
| 20260506191851 | 57 | 36 | 0.0 | 3.0 | 0.00 | 0.02 | 0.02 | 34 | 1018.0 |
| 20260506191346 | 58 | 36 | 3.0 | 6.0 | 0.00 | 0.02 | 0.02 | 34 | 1018.1 |
| 20260506190844 | 58 | 240 | 1.0 | 3.0 | 0.00 | 0.02 | 0.02 | 33 | 1018.0 |
| 20260506190339 | 57 | 87 | 0.0 | 1.0 | 0.00 | 0.02 | 0.02 | 34 | 1018.1 |
| 20260506185837 | 57 | 336 | 3.0 | 6.0 | 0.00 | 0.02 | 0.02 | 33 | 1018.0 |
| 20260506185334 | 57 | 283 | 2.0 | 2.0 | 0.00 | 0.02 | 0.02 | 36 | 1018.0 |
| 20260506184831 | 57 | 219 | 2.0 | 2.0 | 0.00 | 0.02 | 0.02 | 37 | 1018.4 |
| 20260506184328 | 56 | 266 | 3.0 | 5.0 | 0.00 | 0.02 | 0.02 | 35 | 1018.5 |
| 20260506183826 | 57 | 335 | 4.0 | 5.0 | 0.00 | 0.02 | 0.02 | 34 | 1018.3 |
| 20260506183320 | 57 | 32 | 3.0 | 3.0 | 0.00 | 0.02 | 0.02 | 36 | 1018.3 |
| 20260506182818 | 57 | 320 | 1.0 | 2.0 | 0.00 | 0.02 | 0.02 | 36 | 1018.7 |
| 20260506182315 | 58 | 337 | 2.0 | 2.0 | 0.00 | 0.02 | 0.02 | 34 | 1018.4 |
| 20260506181813 | 57 | 354 | 2.0 | 3.0 | 0.00 | 0.02 | 0.02 | 32 | 1018.9 |
| 20260506181310 | 57 | 358 | 4.0 | 6.0 | 0.00 | 0.02 | 0.02 | 33 | 1018.9 |
| 20260506180807 | 57 | 38 | 1.0 | 2.0 | 0.00 | 0.02 | 0.02 | 35 | 1018.6 |
| 20260506180303 | 57 | 311 | 3.0 | 3.0 | 0.00 | 0.02 | 0.02 | 34 | 1018.9 |
| 20260506175754 | 57 | 353 | 2.0 | 2.0 | 0.00 | 0.02 | 0.02 | 36 | 1018.8 |
| 20260506175251 | 56 | 331 | 1.0 | 2.0 | 0.00 | 0.02 | 0.02 | 37 | 1018.7 |
| 20260506174749 | 55 | 18 | 2.0 | 3.0 | 0.00 | 0.02 | 0.02 | 36 | 1018.5 |
| 20260506174246 | 56 | 302 | 3.0 | 6.0 | 0.00 | 0.02 | 0.02 | 35 | 1018.6 |
| 20260506173743 | 55 | 47 | 1.0 | 2.0 | 0.00 | 0.02 | 0.02 | 35 | 1018.8 |
| 20260506173240 | 55 | 47 | 3.0 | 7.0 | 0.00 | 0.02 | 0.02 | 34 | 1018.8 |
| 20260506172736 | 55 | 344 | 2.0 | 2.0 | 0.00 | 0.02 | 0.02 | 39 | 1018.4 |
| 20260506172233 | 55 | 301 | 3.0 | 6.0 | 0.00 | 0.02 | 0.02 | 36 | 1018.5 |
| 20260506171725 | 55 | 336 | 3.0 | 3.0 | 0.00 | 0.02 | 0.02 | 37 | 1018.6 |
| 20260506171222 | 56 | 9 | 1.0 | 2.0 | 0.00 | 0.02 | 0.02 | 37 | 1018.6 |
| 20260506170719 | 56 | 22 | 2.0 | 3.0 | 0.00 | 0.02 | 0.02 | 39 | 1018.6 |
| 20260506170216 | 56 | 23 | 1.0 | 5.0 | 0.00 | 0.02 | 0.02 | 35 | 1018.5 |
| 20260506165715 | 56 | 19 | 2.0 | 3.0 | 0.00 | 0.02 | 0.02 | 39 | 1018.8 |